This demonstration page uses our WeatherBlox Daily Observations layout. Learn more.

Left ArrowRight Arrow

30.21309, -93.2044

Hourly Observations for April 12, 2022

Temp ( °F °C ) Dew Point ( °F °C ) Humidity (%) Winds ( mph kmh ) Pressure ( in mb ) Visibility ( mi km ) Precip ( " mm )
12:15 am 00:15 Cloudy 69 20.5 66 18.9 91 91 SSE 10 17 29.93 1014 7 11 0.00 0.00
12:35 am 00:35 Cloudy 69 20.4 66 18.8 91 91 SSE 10 17 29.92 1013 7 11 0.00 0.00
12:55 am 00:55 Cloudy 68 20 66 19 94 94 SSE 9 15 29.93 1014 7 11 0.00 0.00
1:15 am 01:15 Cloudy 68 20.1 66 18.7 92 92 SSE 8 13 29.92 1013 7 11 0.00 0.00
1:35 am 01:35 Cloudy 68 20 65 18.6 92 92 SSE 8 13 29.92 1013 7 11 0.00 0.00
1:55 am 01:55 Cloudy 68 19.8 65 18.6 93 93 SE 8 13 29.92 1013 7 11 0.00 0.00
2:15 am 02:15 Cloudy 68 19.8 65 18.6 93 93 SE 8 13 29.92 1013 7 11 0.00 0.00
2:35 am 02:35 Cloudy 68 20 66 18.8 93 93 SSE 8 13 29.91 1013 7 11 0.00 0.00
2:55 am 02:55 Cloudy 68 20.1 66 18.9 93 93 SSE 9 15 29.90 1013 7 11 0.00 0.00
3:15 am 03:15 Cloudy 68 20.1 66 18.9 93 93 SE 8 13 29.90 1013 7 11 0.00 0.00
3:35 am 03:35 Cloudy with Mist and Fog 68 20 66 18.9 93 93 ESE 6 9 29.90 1013 7 11 0.00 0.00
3:55 am 03:55 Cloudy with Mist and Fog 68 19.9 66 18.9 94 94 ESE 6 9 29.90 1013 5 8 0.00 0.00
4:15 am 04:15 Cloudy with Mist and Fog 68 19.8 66 18.7 93 93 SE 7 11 29.90 1013 7 11 0.00 0.00
4:35 am 04:35 Cloudy with Mist and Fog 68 19.8 66 18.8 94 94 ESE 6 9 29.91 1013 7 11 0.00 0.00
4:55 am 04:55 Cloudy with Mist and Fog 68 19.8 66 18.8 94 94 ESE 6 9 29.92 1013 7 11 0.00 0.00
5:15 am 05:15 Cloudy with Mist and Fog 68 19.9 66 18.9 94 94 ESE 7 11 29.91 1013 7 11 0.00 0.00
5:35 am 05:35 Cloudy with Mist and Fog 68 20 66 18.9 93 93 ESE 9 15 29.91 1013 7 11 0.00 0.00
6:00 am 06:00 Mostly Cloudy 68 20 66 19 94 94 SE 7 11 29.92 1013 10 16 0.00 0.00
6:45 am 06:45 Partly Cloudy with Mist and Fog 68 20 66 19 94 94 SE 7 11 29.92 1013 6 10 0.00 0.00
7:45 am 07:45 Mostly Cloudy with Mist and Fog 66 19 66 19 100 100 ESE 9 15 29.93 1014 5 8 0.00 0.00
8:50 am 08:50 Mostly Cloudy 70 21 66 19 88 88 SSE 13 20 29.94 1014 7 11 0.00 0.00
9:50 am 09:50 Cloudy 72 22 68 20 88 88 SE 13 20 29.94 1014 7 11 0.00 0.00
10:45 am 10:45 Cloudy 75 24 70 21 83 83 SSE 20 31 29.95 1014 8 13 0.00 0.00
11:55 am 11:55 Cloudy 77 25 70 21 79 79 SSE 21 33 29.92 1013 7 11 0.00 0.00
12:45 pm 12:45 Cloudy with Mist and Fog 77 25 70 21 79 79 SSE 21 33 29.91 1013 6 10 0.00 0.00
1:50 pm 13:50 Cloudy with Mist and Fog 75 24 70 21 83 83 SSE 16 26 29.87 1011 6 10 0.00 0.00
2:55 pm 14:55 Cloudy with Mist and Fog 75 24 72 22 89 89 S 22 35 29.88 1012 6 10 0.00 0.00
3:50 pm 15:50 Mostly Cloudy with Light Rain 73 23 70 21 89 89 SSE 36 57 29.76 1008 5 8 0.00 0.00
4:45 pm 16:45 Cloudy with Mist and Fog 75 24 72 22 89 89 S 16 26 29.84 1010 6 10 0.00 0.00
5:54 pm 17:54 Mostly Cloudy with Mist and Fog 73 23 70 21 89 89 S 17 28 29.84 1010 5 8 0.00 0.00
6:45 pm 18:45 Mostly Cloudy with Thunderstorms 70 21 64 18 83 83 SE 18 30 29.80 1009 4 6 0.00 0.00
7:45 pm 19:45 Mostly Cloudy 72 22 66 19 83 83 SSE 17 28 29.81 1009 10 16 0.00 0.00
8:55 pm 20:55 Mostly Clear 70 21 66 19 88 88 ESE 6 9 29.84 1010 10 16 0.00 0.00
9:51 pm 21:51 Partly Cloudy 70 21 66 19 88 88 SSE 12 19 29.86 1011 10 16 0.00 0.00
10:15 pm 22:15 Cloudy 71 21.7 68 19.9 90 90 SSE 8 13 29.86 1011 10 16 0.00 0.00
10:35 pm 22:35 Cloudy 71 21.8 68 20.1 90 90 SSE 9 15 29.86 1011 10 16 0.00 0.00
10:55 pm 22:55 Cloudy 71 21.8 68 20.2 91 91 SSE 9 15 29.86 1011 10 16 0.00 0.00
11:15 pm 23:15 Cloudy 71 21.9 69 20.3 91 91 SSE 8 13 29.86 1011 10 16 0.00 0.00
11:35 pm 23:35 Cloudy 72 22.3 69 20.4 89 89 SSE 7 11 29.87 1011 10 16 0.00 0.00
11:55 pm 23:55 Cloudy 72 22.4 69 20.4 89 89 S 8 13 29.88 1012 10 16 0.00 0.00

Powered by AerisWeather